Meteo orario Gogotovo

Oggi, 12 Aprile, Lunedi

Tempo Temperatura Precipitazioni Vento Pressione Umidità
00:00 +7°C° 0 mm 2 m/s 761 mm Hg 85%
01:00 +6°C° 0 mm 2 m/s 762 mm Hg 85%
02:00 +6°C° 0 mm 2 m/s 762 mm Hg 84%
03:00 +6°C° 0 mm 2 m/s 762 mm Hg 83%
04:00 +6°C° 0 mm 2 m/s 762 mm Hg 83%
05:00 +6°C° 0 mm 2 m/s 762 mm Hg 82%
06:00 +7°C° 0 mm 2 m/s 762 mm Hg 76%
07:00 +9°C° 0 mm 3 m/s 763 mm Hg 70%
08:00 +10°C° 0 mm 3 m/s 763 mm Hg 64%
09:00 +12°C° 0 mm 4 m/s 763 mm Hg 59%
10:00 +13°C° 0 mm 4 m/s 762 mm Hg 54%
11:00 +14°C° 0 mm 5 m/s 762 mm Hg 50%
12:00 +14°C° 0 mm 5 m/s 762 mm Hg 49%
13:00 +15°C° 0 mm 5 m/s 762 mm Hg 49%
14:00 +15°C° 0 mm 5 m/s 761 mm Hg 48%
15:00 +14°C° 0 mm 5 m/s 761 mm Hg 53%
16:00 +13°C° 0 mm 5 m/s 760 mm Hg 57%
17:00 +12°C° 0 mm 5 m/s 760 mm Hg 61%
18:00 +10°C° 0 mm 5 m/s 760 mm Hg 66%
19:00 +9°C° 0 mm 5 m/s 760 mm Hg 70%
20:00 +8°C° 0 mm 5 m/s 759 mm Hg 75%
21:00 +8°C° 0 mm 4 m/s 759 mm Hg 78%
22:00 +7°C° 0 mm 4 m/s 759 mm Hg 82%
23:00 +7°C° 0 mm 3 m/s 759 mm Hg 85%

Domani, 13 Aprile, Martedi

Tempo Temperatura Precipitazioni Vento Pressione Umidità
00:00 +7°C° 0 mm 3 m/s 758 mm Hg 88%
01:00 +5°C° 0 mm 3 m/s 758 mm Hg 92%
02:00 +5°C° 0 mm 3 m/s 758 mm Hg 95%
03:00 +5°C° 0 mm 3 m/s 758 mm Hg 95%
04:00 +5°C° 0 mm 3 m/s 757 mm Hg 96%
05:00 +5°C° 0 mm 2 m/s 757 mm Hg 96%
06:00 +7°C° 0 mm 3 m/s 757 mm Hg 89%
07:00 +9°C° 0 mm 3 m/s 757 mm Hg 82%
08:00 +11°C° 0 mm 4 m/s 756 mm Hg 74%
09:00 +13°C° 0 mm 4 m/s 756 mm Hg 67%
10:00 +15°C° 0 mm 5 m/s 756 mm Hg 59%
11:00 +17°C° 0 mm 5 m/s 756 mm Hg 52%
12:00 +17°C° 0 mm 5 m/s 755 mm Hg 51%
13:00 +19°C° 0 mm 5 m/s 755 mm Hg 50%
14:00 +19°C° 0 mm 5 m/s 755 mm Hg 49%
15:00 +19°C° 0 mm 4 m/s 755 mm Hg 52%
16:00 +18°C° 0 mm 4 m/s 755 mm Hg 54%
17:00 +18°C° 0 mm 3 m/s 755 mm Hg 56%
18:00 +16°C° 0 mm 3 m/s 755 mm Hg 60%
19:00 +14°C° 0 mm 3 m/s 755 mm Hg 65%
20:00 +12°C° 0 mm 3 m/s 755 mm Hg 70%
21:00 +12°C° 0 mm 3 m/s 755 mm Hg 70%
22:00 +11°C° 0 mm 3 m/s 755 mm Hg 71%
23:00 +10°C° 0 mm 3 m/s 754 mm Hg 72%

Dopodomani, 14 Aprile, Mercoledi

Tempo Temperatura Precipitazioni Vento Pressione Umidità
00:00 +10°C° 0 mm 3 m/s 754 mm Hg 73%
01:00 +10°C° 0 mm 3 m/s 754 mm Hg 73%
02:00 +9°C° 0 mm 3 m/s 754 mm Hg 74%
03:00 +9°C° 0 mm 3 m/s 754 mm Hg 75%
04:00 +8°C° 0 mm 3 m/s 754 mm Hg 77%
05:00 +8°C° 0 mm 3 m/s 754 mm Hg 78%
06:00 +10°C° 0 mm 3 m/s 753 mm Hg 71%
07:00 +11°C° 0 mm 4 m/s 753 mm Hg 64%
08:00 +13°C° 0 mm 4 m/s 753 mm Hg 58%
09:00 +15°C° 0 mm 4 m/s 753 mm Hg 52%
10:00 +16°C° 0 mm 5 m/s 753 mm Hg 47%
11:00 +19°C° 0 mm 5 m/s 753 mm Hg 42%
12:00 +19°C° 0 mm 5 m/s 752 mm Hg 40%
13:00 +20°C° 0 mm 5 m/s 752 mm Hg 39%
14:00 +20°C° 0 mm 5 m/s 752 mm Hg 37%
15:00 +19°C° 0 mm 4 m/s 752 mm Hg 40%
16:00 +18°C° 0 mm 4 m/s 751 mm Hg 43%
17:00 +18°C° 0 mm 3 m/s 751 mm Hg 46%
18:00 +16°C° 0 mm 3 m/s 751 mm Hg 51%
19:00 +15°C° 0 mm 2 m/s 751 mm Hg 57%
20:00 +13°C° 0 mm 2 m/s 752 mm Hg 62%
21:00 +12°C° 0 mm 2 m/s 752 mm Hg 67%
22:00 +12°C° 0 mm 1 m/s 752 mm Hg 73%
23:00 +10°C° 0 mm 0 m/s 752 mm Hg 78%

15 Aprile, Giovedi

Tempo Temperatura Precipitazioni Vento Pressione Umidità
00:00 +11°C° 0 mm 1 m/s 752 mm Hg 79%
01:00 +10°C° 0 mm 1 m/s 752 mm Hg 80%
02:00 +10°C° 0 mm 1 m/s 752 mm Hg 81%
03:00 +10°C° 0 mm 1 m/s 752 mm Hg 81%
04:00 +9°C° 0 mm 1 m/s 752 mm Hg 82%
05:00 +9°C° 0 mm 1 m/s 752 mm Hg 82%
06:00 +10°C° 0 mm 1 m/s 752 mm Hg 79%
07:00 +10°C° 0 mm 2 m/s 752 mm Hg 75%
08:00 +12°C° 0 mm 2 m/s 752 mm Hg 72%
09:00 +13°C° 0 mm 2 m/s 752 mm Hg 69%
10:00 +13°C° 0 mm 3 m/s 752 mm Hg 66%
11:00 +13°C° 0 mm 3 m/s 752 mm Hg 63%
12:00 +14°C° 0 mm 3 m/s 752 mm Hg 63%
13:00 +14°C° 0 mm 3 m/s 752 mm Hg 62%
14:00 +14°C° 0 mm 4 m/s 752 mm Hg 62%
15:00 +13°C° 0 mm 4 m/s 752 mm Hg 67%
16:00 +13°C° 0 mm 4 m/s 752 mm Hg 72%
17:00 +12°C° 0 mm 4 m/s 752 mm Hg 78%
18:00 +11°C° 0 mm 4 m/s 752 mm Hg 82%
19:00 +8°C° 0 mm 4 m/s 752 mm Hg 86%
20:00 +7°C° 0 mm 4 m/s 753 mm Hg 91%
21:00 +7°C° 0 mm 4 m/s 753 mm Hg 92%
22:00 +6°C° 0 mm 4 m/s 753 mm Hg 93%
23:00 +6°C° 0 mm 4 m/s 753 mm Hg 94%

16 Aprile, Venerdi

Tempo Temperatura Precipitazioni Vento Pressione Umidità
00:00 +5°C° 0 mm 4 m/s 753 mm Hg 94%
01:00 +5°C° 0 mm 4 m/s 753 mm Hg 94%
02:00 +5°C° 0 mm 4 m/s 753 mm Hg 94%
03:00 +5°C° 0 mm 4 m/s 753 mm Hg 94%
04:00 +4°C° 0 mm 4 m/s 753 mm Hg 93%
05:00 +4°C° 0 mm 4 m/s 754 mm Hg 93%
06:00 +5°C° 0 mm 4 m/s 754 mm Hg 90%
07:00 +5°C° 0 mm 4 m/s 754 mm Hg 86%
08:00 +6°C° 0 mm 5 m/s 754 mm Hg 83%
09:00 +7°C° 0 mm 5 m/s 755 mm Hg 78%
10:00 +8°C° 0 mm 5 m/s 755 mm Hg 73%
11:00 +9°C° 0 mm 5 m/s 755 mm Hg 67%
12:00 +9°C° 0 mm 5 m/s 755 mm Hg 65%
13:00 +9°C° 0 mm 5 m/s 755 mm Hg 62%
14:00 +9°C° 0 mm 6 m/s 756 mm Hg 60%
15:00 +9°C° 0 mm 5 m/s 756 mm Hg 57%
16:00 +9°C° 0 mm 5 m/s 756 mm Hg 55%
17:00 +9°C° 0 mm 5 m/s 756 mm Hg 52%
18:00 +7°C° 0 mm 5 m/s 756 mm Hg 54%
19:00 +6°C° 0 mm 5 m/s 757 mm Hg 55%
20:00 +5°C° 0 mm 5 m/s 757 mm Hg 57%
21:00 +5°C° 0 mm 5 m/s 758 mm Hg 59%
22:00 +3°C° 0 mm 5 m/s 758 mm Hg 61%
23:00 +3°C° 0 mm 5 m/s 758 mm Hg 64%

17 Aprile, Sabato

Tempo Temperatura Precipitazioni Vento Pressione Umidità
00:00 +2°C° 0 mm 5 m/s 759 mm Hg 67%
01:00 +1°C° 0 mm 4 m/s 759 mm Hg 70%
02:00 +1°C° 0 mm 4 m/s 760 mm Hg 73%
03:00 0°C° 0 mm 4 m/s 760 mm Hg 76%
04:00 0°C° 0 mm 4 m/s 761 mm Hg 79%
05:00 -1°C° 0 mm 4 m/s 761 mm Hg 82%
06:00 0°C° 0 mm 4 m/s 761 mm Hg 74%
07:00 +1°C° 0 mm 5 m/s 762 mm Hg 67%
08:00 +2°C° 0 mm 5 m/s 762 mm Hg 60%
09:00 +5°C° 0 mm 5 m/s 762 mm Hg 53%
10:00 +6°C° 0 mm 5 m/s 762 mm Hg 46%
11:00 +7°C° 0 mm 4 m/s 763 mm Hg 39%
12:00 +7°C° 0 mm 4 m/s 763 mm Hg 36%
13:00 +8°C° 0 mm 4 m/s 763 mm Hg 34%
14:00 +8°C° 0 mm 4 m/s 763 mm Hg 32%
15:00 +8°C° 0 mm 4 m/s 763 mm Hg 34%
16:00 +8°C° 0 mm 4 m/s 763 mm Hg 36%
17:00 +7°C° 0 mm 4 m/s 763 mm Hg 38%
18:00 +7°C° 0 mm 3 m/s 763 mm Hg 44%
19:00 +4°C° 0 mm 3 m/s 763 mm Hg 50%
20:00 +4°C° 0 mm 2 m/s 763 mm Hg 56%
21:00 +4°C° 0 mm 2 m/s 764 mm Hg 61%
22:00 +3°C° 0 mm 2 m/s 764 mm Hg 65%
23:00 +3°C° 0 mm 2 m/s 764 mm Hg 70%
Mostrare altro

Abbiamo bisogno del tuo consenso

Meteoprog e i nostri fornitori di servizi possono memorizzare e accedere a dati personali come cookie, identificatori di dispositivi o altre tecnologie simili sul tuo dispositivo e possono elaborare tali dati per personalizzare i contenuti e gli annunci, nonché fornire funzionalità dei social media e analizzarne il traffico.

  • Archiviare e/o accedere alle informazioni sul tuo dispositivo

    Cookie, identificatori di dispositivi o altre informazioni possono essere memorizzati o resi accessibili sul tuo dispositivo per le finalità sopra indicate.

  • Annunci e contenuti personalizzati, misurazione di annunci e contenuti, approfondimenti sul pubblico e sviluppo di prodotti

    Gli annunci e i contenuti possono essere personalizzati in base a un profilo. È possibile aggiungere più dati per personalizzare meglio annunci e contenuti. È possibile misurare il rendimento degli annunci e dei contenuti. È possibile ricavare informazioni sul pubblico che ha visto gli annunci e i contenuti. Tali dati possono essere utilizzati per sviluppare o migliorare l'esperienza, i sistemi e il software dell'utente.

Cliccando su “Accetto”, acconsenti all'uso di cookie, identificatori di dispositivo, web beacon o altre tecnologie simili. Puoi modificare le impostazioni nel browser del tuo dispositivo.

Per determinati scopi, è possibile fare affidamento su interessi legali, piuttosto che sul consenso. Puoi approfondire questo argomento consultando la nostra Informativa sulla privacy e sui cookie.